Regional Weather Roundup
Issued by NWS

Home | Current Version | Previous Version | Text Only | Print | Product List | Glossary Off
Versions: 1 2 3 4 5 6 7 8 9 10 11 12 13 14 15 16 17 18 19 20 21 22 23 24 25 26 27 28 29 30 31 32 33 34 35 36 37 38 39 40 41 42 43 44 45 46 47 48 49 50

000
ASUS43 KDMX 220501
RWRIA

WEATHER ROUNDUP FOR IOWA
NATIONAL WEATHER SERVICE DES MOINES IA
1200 AM CDT SUN APR 22 2018

NOTE: "FAIR" INDICATES FEW OR NO CLOUDS BELOW 12,000 FEET WITH NO
SIGNIFICANT WEATHER AND/OR OBSTRUCTIONS TO VISIBILITY.

* - THESE STATIONS ARE NOT NWS STATIONS...THUS NOT UNDER NWS
QUALITY CONTROL.  THEY ALSO DO NOT REPORT WEATHER SUCH
AS PRECIPITATION OR FOG.

IAZ001>003-012>014-020>022-031>034-043>046-220600-
   NORTHWEST IOWA

CITY           SKY/WX    TMP DP  RH WIND       PRES   REMARKS
CARROLL *      CLOUDY    46  34  61 E9        30.28S
DENISON *      CLOUDY    50  30  46 E12G17    30.28S
LE MARS *      CLOUDY    45  37  76 NE5       30.28F
ORANGE CITY *  CLOUDY    45  37  76 E6        30.29S
SHELDON *      CLOUDY    41  37  87 E8        30.27F
SIOUX CITY     CLOUDY    45  36  70 NE5       30.27F
SPENCER        CLOUDY    41  34  76 E8        30.30S
STORM LAKE *   CLOUDY    41  39  93 E10       30.29F
$$

IAZ055>058-069>071-079>083-090>094-220600-
   SOUTHWEST IOWA

CITY           SKY/WX    TMP DP  RH WIND       PRES   REMARKS
ATLANTIC *     CLOUDY    48  30  49 NE6       30.26S
AUDUBON *      CLOUDY    46  32  57 CALM      30.28S
CLARINDA *     CLOUDY    50  28  43 NE6       30.25F
COUNCIL BLFS * PTCLDY    50  28  43 E13       30.23F
CRESTON *      CLOUDY    48  30  49 E13       30.25F
HARLAN  *      CLOUDY    48  30  49 E10       30.29S
LAMONI         CLOUDY    50  29  44 NE8       30.23R
RED OAK *      CLOUDY    48  32  53 NE7       30.24F
SHENANDOAH *   CLOUDY    50  30  46 NE9       30.23F
$$

IAZ047>049-059>061-072>074-084-220600-
   CENTRAL IOWA

CITY           SKY/WX    TMP DP  RH WIND       PRES   REMARKS
AMES           CLOUDY    48  34  58 NE6       30.30F
ANKENY *       CLOUDY    50  32  50 E10G16    30.29F
BOONE *        CLOUDY    46  36  66 E10       30.29S
CHARITON *     CLOUDY    50  30  46 E9        30.25S
DES MOINES     CLOUDY    52  30  43 E13G20    30.28S
GRINNELL*      CLOUDY    46  33  59 NE12      30.31S
KNOXVILLE *    CLOUDY    50  30  46 E12G17    30.26S
MARSHALLTOWN   CLOUDY    47  36  65 E9        30.30F
NEWTON *       PTCLDY    48  32  53 E17       30.28F
PELLA *        CLOUDY    49  32  52 E8        30.29S
$$

IAZ004>006-015-016-023>025-035-036-220600-
   NORTH CENTRAL IOWA

CITY           SKY/WX    TMP DP  RH WIND       PRES   REMARKS
ALGONA *       CLOUDY    45  36  70 E8        30.31F
CLARION *      CLOUDY    46  36  66 E9        30.31S
ESTHERVILLE    CLOUDY    36  32  85 E7        30.30F WCI  30
FORT DODGE *   CLOUDY    47  38  71 E10       30.31F
MASON CITY     CLOUDY    38  35  89 NE7       30.33F WCI  33
FOREST CITY *  CLOUDY    43  34  70 E7        30.32F
IOWA FALLS *   CLOUDY    49  36  60 E8        30.33S
$$

IAZ007>011-017>019-026>030-037>042-050>054-066-220600-
   NORTHEAST IOWA

CITY           SKY/WX    TMP DP  RH WIND       PRES   REMARKS
CEDAR RAPIDS   FAIR      49  35  58 E8        30.31S
CHARLES CITY * CLOUDY    45  37  76 NE3       30.33F
CLINTON *      CLOUDY    46  37  71 E9        30.34F
DECORAH *      FAIR      45  34  65 CALM      30.34S
DUBUQUE        CLOUDY    48  33  56 E9        30.34F
MONTICELLO *   CLOUDY    50  36  57 E9        30.32F
OELWEIN *      CLOUDY    48  34  57 E12       30.32F
WATERLOO       CLOUDY    48  34  58 E7        30.33R
$$

IAZ064-065-067-068-078-220600-
   EAST CENTRAL IOWA

CITY           SKY/WX    TMP DP  RH WIND       PRES   REMARKS
DAVENPORT      FAIR      48  33  56 E9        30.34F
IOWA CITY      FAIR      52  32  46 E7        30.32S
MUSCATINE *    FAIR      52  30  43 E8G16     30.31R
QUAD CITIES    FAIR      51  30  44 E15       30.30F
$$

IAZ062-063-075>077-085>089-095>099-220600-
   SOUTHEAST IOWA

CITY           SKY/WX    TMP DP  RH WIND       PRES   REMARKS
BURLINGTON     CLOUDY    51  30  44 E13       30.27R
FAIRFIELD *    CLOUDY    50  30  46 E12       30.27F
FORT MADISON * CLOUDY    52  34  50 NE12      30.26F
KEOKUK *       CLOUDY    52  34  50 E9        30.24S
OSKALOOSA *    FAIR      48  31  51 E13       30.27F
CENTERVILLE *    N/A     50  28  43 NE10      30.25S
OTTUMWA        CLOUDY    49  30  48 NE9       30.26F
WASHINGTON *   MOCLDY    50  32  50 E12       30.30F
$$

ABBREVIATIONS USED IN REMARKS
   TC - TEMPERATURES IN CELSIUS
  WCI - WIND CHILL INDEX
   HX - HEAT INDEX
  VSB - VISIBILITY
$$




USA.gov is the U.S. government's official web portal to all federal, state and local government web resources and services.